TimeCDT,TemperatureF,Dew PointF,Humidity,Sea Level PressureIn,VisibilityMPH,Wind Direction,Wind SpeedMPH,Gust SpeedMPH,PrecipitationIn,Events,Conditions,WindDirDegrees,DateUTC
12:15 AM,53.6,33.8,47,30.08,10.0,SSE,11.5,-,N/A,,Overcast,150,2013-03-30 05:15:00
12:35 AM,53.6,35.6,51,30.07,10.0,SSE,16.1,-,N/A,,Mostly Cloudy,160,2013-03-30 05:35:00
12:55 AM,53.6,35.6,51,30.07,10.0,South,12.7,-,N/A,,Overcast,170,2013-03-30 05:55:00
1:15 AM,53.6,35.6,51,30.07,10.0,SSE,15.0,-,N/A,,Overcast,160,2013-03-30 06:15:00
1:35 AM,51.8,35.6,54,30.07,10.0,South,16.1,21.9,N/A,,Mostly Cloudy,170,2013-03-30 06:35:00
1:55 AM,51.8,37.4,58,30.06,10.0,South,10.4,17.3,N/A,Rain,Light Rain,180,2013-03-30 06:55:00
2:15 AM,51.8,37.4,58,30.05,10.0,South,12.7,-,N/A,,Overcast,190,2013-03-30 07:15:00
2:35 AM,51.8,39.2,62,30.05,8.0,South,12.7,-,N/A,Rain,Light Rain,190,2013-03-30 07:35:00
2:55 AM,50.0,41.0,71,30.02,9.0,South,13.8,-,0.02,Rain,Light Rain,180,2013-03-30 07:55:00
3:15 AM,48.2,41.0,76,30.00,10.0,South,13.8,-,N/A,,Unknown,170,2013-03-30 08:15:00
3:35 AM,48.2,42.8,82,29.99,10.0,South,10.4,16.1,N/A,,Overcast,180,2013-03-30 08:35:00
3:55 AM,48.2,42.8,82,29.97,10.0,SSE,11.5,-,0.01,,Mostly Cloudy,150,2013-03-30 08:55:00
4:15 AM,46.4,41.0,81,29.96,10.0,SE,8.1,-,N/A,,Mostly Cloudy,140,2013-03-30 09:15:00
4:35 AM,46.4,41.0,81,29.96,10.0,SSE,8.1,-,N/A,,Overcast,160,2013-03-30 09:35:00
4:55 AM,46.4,42.8,87,29.95,10.0,SE,8.1,-,N/A,,Overcast,130,2013-03-30 09:55:00
5:15 AM,46.4,42.8,87,29.99,10.0,NW,6.9,-,N/A,,Overcast,320,2013-03-30 10:15:00
5:35 AM,46.4,42.8,87,29.98,4.0,SW,4.6,-,N/A,Rain,Light Rain,230,2013-03-30 10:35:00
5:55 AM,46.4,44.6,93,29.96,4.0,South,13.8,-,0.06,Rain,Light Rain,190,2013-03-30 10:55:00
6:15 AM,46.4,46.4,100,29.98,4.0,SW,6.9,13.8,N/A,Rain,Light Rain,230,2013-03-30 11:15:00
6:35 AM,46.4,46.4,100,29.96,8.0,South,9.2,-,N/A,Rain,Light Rain,170,2013-03-30 11:35:00
6:55 AM,46.4,46.4,100,29.95,10.0,South,9.2,-,0.03,,Overcast,180,2013-03-30 11:55:00
7:15 AM,46.4,46.4,100,29.94,8.0,South,11.5,-,N/A,,Overcast,180,2013-03-30 12:15:00
7:35 AM,46.4,46.4,100,29.94,8.0,South,8.1,-,N/A,,Mostly Cloudy,170,2013-03-30 12:35:00
7:55 AM,48.2,48.2,100,29.95,10.0,South,6.9,-,N/A,,Mostly Cloudy,180,2013-03-30 12:55:00
8:15 AM,48.2,48.2,100,29.95,10.0,South,5.8,-,N/A,,Mostly Cloudy,180,2013-03-30 13:15:00
8:35 AM,50.0,48.2,94,29.96,10.0,SSW,6.9,-,N/A,,Overcast,200,2013-03-30 13:35:00
8:55 AM,50.0,48.2,94,29.96,10.0,Calm,Calm,-,N/A,,Mostly Cloudy,0,2013-03-30 13:55:00
9:15 AM,50.0,50.0,100,29.96,10.0,South,4.6,-,N/A,,Partly Cloudy,190,2013-03-30 14:15:00
9:35 AM,51.8,50.0,94,29.96,10.0,SW,4.6,-,N/A,,Scattered Clouds,220,2013-03-30 14:35:00
9:55 AM,51.8,50.0,94,29.95,10.0,SW,4.6,-,N/A,,Scattered Clouds,220,2013-03-30 14:55:00
10:15 AM,51.8,50.0,94,29.95,10.0,SW,5.8,-,N/A,,Clear,230,2013-03-30 15:15:00
10:35 AM,53.6,50.0,88,29.94,10.0,SW,8.1,-,N/A,,Clear,230,2013-03-30 15:35:00
10:55 AM,55.4,50.0,82,29.94,10.0,WSW,6.9,-,N/A,,Scattered Clouds,240,2013-03-30 15:55:00
11:15 AM,57.2,51.8,82,29.93,10.0,West,8.1,-,N/A,,Scattered Clouds,260,2013-03-30 16:15:00
11:35 AM,59.0,51.8,77,29.93,10.0,West,13.8,-,N/A,,Clear,270,2013-03-30 16:35:00
11:55 AM,60.8,51.8,72,29.92,10.0,West,13.8,-,N/A,,Partly Cloudy,270,2013-03-30 16:55:00
12:15 PM,60.8,51.8,72,29.92,10.0,WNW,12.7,18.4,N/A,,Mostly Cloudy,300,2013-03-30 17:15:00
12:35 PM,62.6,51.8,68,29.92,10.0,WNW,15.0,-,N/A,,Mostly Cloudy,300,2013-03-30 17:35:00
12:55 PM,60.8,51.8,72,29.92,10.0,NW,12.7,-,N/A,,Mostly Cloudy,310,2013-03-30 17:55:00
1:15 PM,62.6,51.8,68,29.91,10.0,WNW,13.8,-,N/A,,Mostly Cloudy,300,2013-03-30 18:15:00
1:35 PM,62.6,50.0,63,29.90,10.0,NW,10.4,17.3,N/A,,Mostly Cloudy,320,2013-03-30 18:35:00
1:55 PM,64.4,48.2,56,29.90,10.0,WNW,10.4,20.7,N/A,,Partly Cloudy,300,2013-03-30 18:55:00
2:15 PM,64.4,46.4,52,29.90,10.0,NNW,15.0,21.9,N/A,,Clear,330,2013-03-30 19:15:00
2:35 PM,66.2,44.6,46,29.90,10.0,NW,17.3,23.0,N/A,,Clear,320,2013-03-30 19:35:00
2:55 PM,66.2,42.8,43,29.89,10.0,NNW,16.1,23.0,N/A,,Clear,340,2013-03-30 19:55:00
3:15 PM,66.2,37.4,35,29.89,10.0,NNW,16.1,25.3,N/A,,Clear,330,2013-03-30 20:15:00
3:35 PM,66.2,35.6,32,29.89,10.0,North,18.4,-,N/A,,Clear,350,2013-03-30 20:35:00
3:55 PM,66.2,35.6,32,29.89,10.0,North,18.4,25.3,N/A,,Clear,10,2013-03-30 20:55:00
4:15 PM,66.2,35.6,32,29.89,10.0,North,17.3,-,N/A,,Partly Cloudy,350,2013-03-30 21:15:00
4:35 PM,64.4,35.6,34,29.89,10.0,NNW,16.1,24.2,N/A,,Clear,340,2013-03-30 21:35:00
4:55 PM,64.4,37.4,37,29.89,10.0,North,11.5,19.6,N/A,,Clear,350,2013-03-30 21:55:00
5:15 PM,64.4,35.6,34,29.89,10.0,NW,17.3,-,N/A,,Clear,320,2013-03-30 22:15:00
5:35 PM,64.4,39.2,40,29.89,10.0,NNW,9.2,16.1,N/A,,Clear,340,2013-03-30 22:35:00
5:55 PM,62.6,37.4,39,29.89,10.0,NNW,10.4,20.7,N/A,,Clear,340,2013-03-30 22:55:00
6:15 PM,62.6,37.4,39,29.90,10.0,North,9.2,18.4,N/A,,Clear,350,2013-03-30 23:15:00
6:35 PM,60.8,35.6,39,29.90,10.0,NNW,11.5,17.3,N/A,,Clear,340,2013-03-30 23:35:00
6:55 PM,60.8,33.8,36,29.90,10.0,NNW,10.4,-,N/A,,Clear,340,2013-03-30 23:55:00
7:15 PM,59.0,35.6,42,29.90,10.0,NNW,6.9,-,N/A,,Clear,330,2013-03-31 00:15:00
7:35 PM,59.0,37.4,45,29.90,10.0,NNW,4.6,-,N/A,,Clear,340,2013-03-31 00:35:00
7:55 PM,57.2,35.6,44,29.91,10.0,NNW,5.8,-,N/A,,Clear,340,2013-03-31 00:55:00
8:15 PM,57.2,35.6,44,29.91,10.0,NNW,5.8,-,N/A,,Clear,340,2013-03-31 01:15:00
8:35 PM,55.4,37.4,51,29.92,10.0,NNW,6.9,-,N/A,,Clear,340,2013-03-31 01:35:00
8:55 PM,53.6,37.4,54,29.93,10.0,NNW,6.9,-,N/A,,Clear,340,2013-03-31 01:55:00
9:15 PM,53.6,39.2,58,29.94,10.0,NNW,10.4,-,N/A,,Clear,340,2013-03-31 02:15:00
9:35 PM,53.6,39.2,58,29.94,10.0,North,5.8,12.7,N/A,,Partly Cloudy,350,2013-03-31 02:35:00
9:55 PM,53.6,39.2,58,29.94,10.0,NW,3.5,-,N/A,,Partly Cloudy,310,2013-03-31 02:55:00
10:15 PM,51.8,39.2,62,29.94,10.0,NW,5.8,-,N/A,,Clear,310,2013-03-31 03:15:00
10:35 PM,51.8,39.2,62,29.94,10.0,NW,6.9,-,N/A,,Clear,320,2013-03-31 03:35:00
10:55 PM,50.0,39.2,66,29.94,10.0,NW,5.8,-,N/A,,Clear,320,2013-03-31 03:55:00
11:15 PM,50.0,37.4,62,29.94,10.0,North,5.8,-,N/A,,Clear,360,2013-03-31 04:15:00
11:35 PM,50.0,37.4,62,29.94,10.0,NNW,6.9,-,N/A,,Clear,330,2013-03-31 04:35:00
11:55 PM,50.0,39.2,66,29.94,10.0,NNW,6.9,-,N/A,,Partly Cloudy,330,2013-03-31 04:55:00